Location: Freistadt
(48.5112°N, 14.5013°E)
Time: 21:56:01
(UTC+02:00)

O/OREOS (USA 219) - Pass Details

Date: 09 April 2023
Orbit: 621 x 646 km, 72.0° (Epoch: 22 May)

Event Time Altitude Azimuth Distance (km) Brightness Sun altitude
Exits shadow 05:31:49 11° 265° (W) 1,974 ? -9.2°
Maximum altitude 05:35:04 21° 312° (NW) 1,446 ? -8.7°
Drops below altitude 10° 05:38:30 10° 1° (N) 2,025 ? -8.1°
Sets 05:41:17 0° 18° (NNE) 2,932 ? -7.7°
